Showing default

TYVAK-0172, 46267

Orbit data source: Space-Track

TYVAK-0172, 46267 is a payload satellite owned by Echostar AU (US) in SSO that was launched on Sun, 30 Aug 2020 UTC via an FALCON 9 launch vehicle from the Air Force Eastern Test Range (AFETR). Payload-class satellites include a variety of spacecraft equipped with specific instruments for various scientific and technological missions. These include communications satellites like Starlink; space stations such as the ISS; scientific satellites like the Hubble; Earth observation satellites from companies like Planet Labs, Umbra, and HawkEye 360; GPS; miniature CubeSats for education and research; and military/defense satellites.

Loading next visibility...
Identifier
46267, 2020-059C
Orbit
SSO
Country
Flag of USUS
Related business
Manufacturer
Tyvak NSS
Mission
Operational Commercial Technology
Bus & Motor
CUBESAT 6U?, Unknown motor
Mass
11 kg wet, 11 kg dry
Launch date (UTC)
2020-08-30 (5 years ago)
Launch vehicle
FALCON 9
Launch site
Air Force Eastern Test Range (AFETR)
Object type
Payload
Rocket body
Debris
Shape & HBR
Box + 2 Pan, Unknown HBR
Radar Cross Section
0.077 m², Medium (>0.1 m² and < 1m²)

Expand to show TLE details & history
Last TLE update: 17 hours ago

TLE from 17 hours ago
0 TYVAK-0172
1 46267U 20059C   25354.60151860  .00026145  00000-0  46772-3 0  9994
2 46267  97.7265 225.4218 0001239  86.8492 273.2900 15.49981975290810
Epoch: 2025-12-20T14:26Z
TLE epoch observation values (Epoch: 2025-12-20T14:26:11.207Z)
Latitude
-0.00001°
Longitude
-80.55087°
Altitude
419.852 km
Speed
7.659 km/s
True Right ascension
15h 01m 41s
True Declination
0° 00' 00"
Sunlit
Object was in daylight at epoch
Visualization orbit readout
Latitude
Unknown
Longitude
Unknown
Altitude
Unknown
Speed
Unknown
Apparent Right ascension
Unknown
Apparent Declination
Unknown
Sunlit
N/A
Visualization observer readout
Local Sidereal Time
06:22:41
Azimuth
Unknown
Elevation
Unknown
Doppler factor
Unknown
Orbital elements
Apogee altitude
414.56 km
Perigee altitude
412.877 km
Semi-major axis
6,791.856 km
Eccentricity
0.00012
Inclination
97.7265°
RAAN
225.4218°
Arg. of periapsis
86.8492°
True anomaly
273.27583°
Mean anomaly
273.29°
Eccentric anomaly
273.28291°
Mean motion
3.87758 °/min
Orbital period
92.84 mins
BSTAR
0.00046772
Loading maneuver chart data...
Computing Atmospheric mass density...
Loading historical data...
Loading historical data...
Loading historical data...
Loading historical data...
Loading historical data...
Loading historical data...
Loading historical data...
Other satellites on launch #59 in the year 2020 (2020-08-30 UTC)

Documentation

Showing up to 5 results
|